This demonstration page uses our WeatherBlox Daily Observations layout. Learn more.

Left ArrowRight Arrow

38.83388, -104.82136

Hourly Observations for May 9, 2018

Temp ( °F °C ) Dew Point ( °F °C ) Humidity (%) Winds ( mph kmh ) Pressure ( in mb ) Visibility ( mi km ) Precip ( " mm )
12:58 am 00:58 Clear 62 16.5 26 -3.5 25 25 S 9 15 29.62 1003 10 16 0.00 0.00
1:58 am 01:58 Clear 61 16 27 -2.6 28 28 SW 5 7 29.61 1003 10 16 0.00 0.00
2:56 am 02:56 Clear 61 16.1 28 -2.2 29 29 SW 6 9 29.61 1003 10 16 0.00 0.00
3:56 am 03:56 Clear 62 16.6 28 -2.1 28 28 SSW 5 7 29.61 1003 10 16 0.00 0.00
4:58 am 04:58 Clear 61 16.3 29 -1.7 29 29 S 8 13 29.60 1003 10 16 0.00 0.00
5:58 am 05:58 Sunny 61 16.2 29 -1.6 30 30 SSW 9 15 29.61 1003 10 16 0.00 0.00
6:58 am 06:58 Sunny 57 13.7 29 -1.5 35 35 Calm 29.63 1004 10 16 0.00 0.00
7:58 am 07:58 Sunny 61 15.9 31 -0.8 32 32 Calm 29.63 1004 10 16 0.00 0.00
8:58 am 08:58 Sunny 67 19.3 33 0.8 29 29 SE 5 7 29.58 1002 10 16 0.00 0.00
9:58 am 09:58 Mostly Cloudy 69 20.6 33 0.4 26 26 E 5 7 29.59 1002 10 16 0.00 0.00
10:58 am 10:58 Mostly Cloudy 73 22.5 27 -2.9 18 18 SE 10 17 29.57 1001 10 16 0.00 0.00
11:58 am 11:58 Partly Cloudy 73 22.7 28 -2.3 19 19 ESE 12 19 29.56 1001 10 16 0.00 0.00
12:58 pm 12:58 Mostly Cloudy 74 23.2 25 -3.8 16 16 SE 9 15 29.54 1000 10 16 0.00 0.00
1:58 pm 13:58 Mostly Cloudy 73 22.6 28 -2.2 19 19 ESE 6 9 29.53 1000 10 16 0.00 0.00
2:58 pm 14:58 Mostly Sunny 75 23.9 27 -2.8 17 17 SE 15 24 29.53 1000 10 16 0.00 0.00
3:58 pm 15:58 Mostly Cloudy 72 22 26 -3.5 18 18 NNW 8 13 29.55 1001 10 16 0.00 0.00
4:58 pm 16:58 Mostly Sunny 70 21 28 -2.3 21 21 NW 3 6 29.55 1001 10 16 0.00 0.00
5:58 pm 17:58 Mostly Cloudy 70 21.3 24 -4.2 18 18 N 10 17 29.55 1001 10 16 0.00 0.00
6:58 pm 18:58 Mostly Cloudy 69 20.3 26 -3.4 20 20 WNW 8 13 29.58 1002 10 16 0.00 0.00
7:58 pm 19:58 Mostly Cloudy 66 18.8 32 0.2 29 29 WNW 9 15 29.58 1002 10 16 0.00 0.00
8:58 pm 20:58 Mostly Cloudy 66 18.7 29 -1.6 25 25 Calm 29.57 1001 10 16 0.00 0.00
9:58 pm 21:58 Clear 64 17.6 30 -1.3 28 28 SSW 6 9 29.57 1001 10 16 0.00 0.00
10:58 pm 22:58 Clear 65 18.1 29 -1.6 26 26 SSW 5 7 29.55 1001 10 16 0.00 0.00
11:58 pm 23:58 Clear 64 17.8 28 -2 26 26 SW 8 13 29.53 1000 10 16 0.00 0.00

Powered by AerisWeather